| time (UTC) | temp F | wind direction | speed MPH | gust MPH | rain 1hr in | rain 24hr in | rain mn in | humidity % | barometer mb |
| 20260502233503 | 48 | 256 | 1.0 | 4.0 | 0.00 | 0.00 | 0.00 | 36 | 1014.1 |
| 20260502233016 | 48 | 227 | 1.0 | 7.0 | 0.00 | 0.00 | 0.00 | 36 | 1014.2 |
| 20260502232507 | 48 | 247 | 0.0 | 7.0 | 0.00 | 0.00 | 0.00 | 37 | 1014.2 |
| 20260502232007 | 48 | 272 | 1.0 | 4.0 | 0.00 | 0.00 | 0.00 | 36 | 1014.2 |
| 20260502231524 | 49 | 30 | 0.0 | 7.0 | 0.00 | 0.00 | 0.00 | 35 | 1014.2 |
| 20260502231009 | 49 | 30 | 0.0 | 8.0 | 0.00 | 0.00 | 0.00 | 35 | 1014.2 |
| 20260502230509 | 49 | 282 | 1.0 | 8.0 | 0.00 | 0.00 | 0.00 | 34 | 1014.2 |
| 20260502230026 | 49 | 59 | 1.0 | 8.0 | 0.00 | 0.00 | 0.00 | 34 | 1014.2 |
| 20260502225508 | 49 | 65 | 1.0 | 9.0 | 0.00 | 0.00 | 0.00 | 35 | 1014.3 |
| 20260502225008 | 49 | 62 | 4.0 | 9.0 | 0.00 | 0.00 | 0.00 | 34 | 1014.3 |
| 20260502224527 | 49 | 352 | 4.0 | 9.0 | 0.00 | 0.00 | 0.00 | 34 | 1014.4 |
| 20260502224011 | 49 | 105 | 3.0 | 9.0 | 0.00 | 0.00 | 0.00 | 33 | 1014.4 |
| 20260502223506 | 49 | 90 | 4.0 | 9.0 | 0.00 | 0.00 | 0.00 | 33 | 1014.5 |
| 20260502223016 | 50 | 285 | 2.0 | 9.0 | 0.00 | 0.00 | 0.00 | 34 | 1014.5 |
| 20260502222504 | 50 | 178 | 0.0 | 6.0 | 0.00 | 0.00 | 0.00 | 34 | 1014.6 |
| 20260502222007 | 50 | 120 | 0.0 | 4.0 | 0.00 | 0.00 | 0.00 | 33 | 1014.7 |
| 20260502221519 | 50 | 236 | 0.0 | 11.0 | 0.00 | 0.00 | 0.00 | 33 | 1014.7 |
| 20260502221009 | 50 | 273 | 1.0 | 11.0 | 0.00 | 0.00 | 0.00 | 33 | 1014.9 |
| 20260502220508 | 49 | 352 | 2.0 | 8.0 | 0.00 | 0.00 | 0.00 | 34 | 1014.8 |
| 20260502220026 | 49 | 44 | 3.0 | 9.0 | 0.00 | 0.00 | 0.00 | 33 | 1014.9 |
| 20260502215509 | 49 | 45 | 4.0 | 9.0 | 0.00 | 0.00 | 0.00 | 34 | 1014.9 |
| 20260502215008 | 49 | 338 | 2.0 | 9.0 | 0.00 | 0.00 | 0.00 | 33 | 1014.9 |
| 20260502214526 | 49 | 92 | 2.0 | 11.0 | 0.00 | 0.00 | 0.00 | 32 | 1015.0 |
| 20260502214010 | 50 | 89 | 3.0 | 11.0 | 0.00 | 0.00 | 0.00 | 31 | 1015.0 |
| 20260502213511 | 50 | 44 | 2.0 | 9.0 | 0.00 | 0.00 | 0.00 | 35 | 1015.0 |
| 20260502213028 | 49 | 278 | 2.0 | 11.0 | 0.00 | 0.00 | 0.00 | 32 | 1015.1 |
| 20260502212503 | 50 | 5 | 3.0 | 12.0 | 0.00 | 0.00 | 0.00 | 33 | 1015.2 |
| 20260502212006 | 49 | 266 | 4.0 | 12.0 | 0.00 | 0.00 | 0.00 | 32 | 1015.2 |
| 20260502211531 | 49 | 322 | 3.0 | 9.0 | 0.00 | 0.00 | 0.00 | 32 | 1015.2 |
| 20260502211008 | 49 | 270 | 2.0 | 12.0 | 0.00 | 0.00 | 0.00 | 32 | 1015.2 |
| 20260502210509 | 50 | 63 | 6.0 | 12.0 | 0.00 | 0.00 | 0.00 | 30 | 1015.3 |
| 20260502210025 | 49 | 279 | 1.0 | 12.0 | 0.00 | 0.00 | 0.00 | 33 | 1015.3 |
| 20260502205507 | 49 | 44 | 3.0 | 12.0 | 0.00 | 0.00 | 0.00 | 32 | 1015.4 |
| 20260502205008 | 49 | 111 | 3.0 | 11.0 | 0.00 | 0.00 | 0.00 | 31 | 1015.4 |
| 20260502204525 | 49 | 352 | 5.0 | 12.0 | 0.00 | 0.00 | 0.00 | 30 | 1015.5 |
| 20260502204010 | 49 | 5 | 3.0 | 13.0 | 0.00 | 0.00 | 0.00 | 30 | 1015.6 |
| 20260502203510 | 49 | 51 | 4.0 | 13.0 | 0.00 | 0.00 | 0.00 | 31 | 1015.7 |
| 20260502203026 | 48 | 5 | 7.0 | 14.0 | 0.00 | 0.00 | 0.00 | 30 | 1015.7 |
| 20260502202510 | 48 | 26 | 2.0 | 14.0 | 0.00 | 0.00 | 0.00 | 30 | 1015.7 |
| 20260502202011 | 49 | 24 | 5.0 | 10.0 | 0.00 | 0.00 | 0.00 | 30 | 1015.9 |
| 20260502201513 | 49 | 84 | 3.0 | 12.0 | 0.00 | 0.00 | 0.00 | 31 | 1015.9 |
| 20260502201007 | 48 | 290 | 5.0 | 12.0 | 0.00 | 0.00 | 0.00 | 32 | 1015.8 |
| 20260502200506 | 48 | 11 | 3.0 | 13.0 | 0.00 | 0.00 | 0.00 | 31 | 1016.0 |
| 20260502200024 | 48 | 23 | 5.0 | 13.0 | 0.00 | 0.00 | 0.00 | 31 | 1016.1 |
| 20260502195508 | 48 | 333 | 5.0 | 14.0 | 0.00 | 0.00 | 0.00 | 30 | 1016.1 |
| 20260502195008 | 48 | 36 | 6.0 | 14.0 | 0.00 | 0.00 | 0.00 | 32 | 1016.1 |
| 20260502194523 | 49 | 328 | 3.0 | 16.0 | 0.00 | 0.00 | 0.00 | 30 | 1016.2 |
| 20260502194007 | 49 | 40 | 4.0 | 16.0 | 0.00 | 0.00 | 0.00 | 31 | 1016.2 |
| 20260502193517 | 48 | 20 | 5.0 | 12.0 | 0.00 | 0.00 | 0.00 | 31 | 1016.3 |
| 20260502193026 | 48 | 314 | 2.0 | 12.0 | 0.00 | 0.00 | 0.00 | 28 | 1016.3 |
| 20260502192512 | 50 | 30 | 3.0 | 10.0 | 0.00 | 0.00 | 0.00 | 32 | 1016.4 |
| 20260502192009 | 48 | 32 | 5.0 | 12.0 | 0.00 | 0.00 | 0.00 | 31 | 1016.3 |
| 20260502191528 | 48 | 34 | 7.0 | 12.0 | 0.00 | 0.00 | 0.00 | 29 | 1016.3 |
| 20260502191010 | 49 | 317 | 4.0 | 11.0 | 0.00 | 0.00 | 0.00 | 32 | 1016.4 |
| 20260502190511 | 48 | 15 | 4.0 | 16.0 | 0.00 | 0.00 | 0.00 | 32 | 1016.4 |
| 20260502190015 | 48 | 5 | 5.0 | 16.0 | 0.00 | 0.00 | 0.00 | 31 | 1016.5 |
| 20260502185506 | 48 | 333 | 4.0 | 16.0 | 0.00 | 0.00 | 0.00 | 32 | 1016.5 |
| 20260502185010 | 48 | 320 | 4.0 | 13.0 | 0.00 | 0.00 | 0.00 | 31 | 1016.5 |
| 20260502184540 | 48 | 360 | 5.0 | 14.0 | 0.00 | 0.00 | 0.00 | 29 | 1016.5 |
| 20260502184007 | 48 | 103 | 6.0 | 14.0 | 0.00 | 0.00 | 0.00 | 30 | 1016.5 |
| 20260502183508 | 48 | 305 | 4.0 | 15.0 | 0.00 | 0.00 | 0.00 | 30 | 1016.6 |
| 20260502183038 | 48 | 330 | 5.0 | 15.0 | 0.00 | 0.00 | 0.00 | 30 | 1016.6 |
| 20260502182507 | 48 | 345 | 6.0 | 12.0 | 0.00 | 0.00 | 0.00 | 30 | 1016.6 |
| 20260502182010 | 48 | 69 | 3.0 | 12.0 | 0.00 | 0.00 | 0.00 | 29 | 1016.6 |
| 20260502181536 | 48 | 336 | 2.0 | 15.0 | 0.00 | 0.00 | 0.00 | 32 | 1016.7 |
| 20260502181008 | 47 | 9 | 8.0 | 15.0 | 0.00 | 0.00 | 0.00 | 29 | 1016.7 |
| 20260502180508 | 48 | 153 | 8.0 | 13.0 | 0.00 | 0.00 | 0.00 | 30 | 1016.8 |
| 20260502170504 | 46 | 345 | 3.0 | 13.0 | 0.00 | 0.00 | 0.00 | 30 | 1017.0 |
| 20260502164007 | 45 | 123 | 5.0 | 14.0 | 0.00 | 0.00 | 0.00 | 32 | 1017.3 |
| 20260502163508 | 46 | 20 | 3.0 | 9.0 | 0.00 | 0.00 | 0.00 | 36 | 1017.3 |
| 20260502163025 | 45 | 320 | 3.0 | 9.0 | 0.00 | 0.00 | 0.00 | 35 | 1017.4 |
| 20260502162508 | 45 | 250 | 2.0 | 9.0 | 0.00 | 0.00 | 0.00 | 34 | 1017.4 |
| 20260502162009 | 45 | 45 | 3.0 | 13.0 | 0.00 | 0.00 | 0.00 | 39 | 1017.5 |
| 20260502161507 | 45 | 321 | 6.0 | 13.0 | 0.00 | 0.00 | 0.00 | 34 | 1017.5 |
| 20260502161003 | 46 | 248 | 2.0 | 13.0 | 0.00 | 0.00 | 0.00 | 37 | 1017.6 |
| 20260502160504 | 45 | 269 | 2.0 | 13.0 | 0.00 | 0.00 | 0.00 | 39 | 1017.6 |
| 20260502152009 | 44 | 250 | 1.0 | 8.0 | 0.00 | 0.00 | 0.00 | 39 | 1017.8 |
| 20260502151526 | 43 | 113 | 1.0 | 9.0 | 0.00 | 0.00 | 0.00 | 40 | 1017.8 |
| 20260502151008 | 42 | 145 | 5.0 | 9.0 | 0.00 | 0.00 | 0.00 | 41 | 1017.8 |
| 20260502150502 | 42 | 322 | 3.0 | 10.0 | 0.00 | 0.00 | 0.00 | 41 | 1017.9 |
| 20260502130505 | 37 | 40 | 2.0 | 4.0 | 0.00 | 0.00 | 0.00 | 60 | 1018.3 |
| 20260502123502 | 34 | 56 | 0.0 | 3.0 | 0.00 | 0.00 | 0.00 | 77 | 1018.4 |
| 20260502123014 | 33 | 350 | 0.0 | 3.0 | 0.00 | 0.00 | 0.00 | 81 | 1018.5 |
| 20260502122506 | 32 | 338 | 0.0 | 0.0 | 0.00 | 0.00 | 0.00 | 88 | 1018.5 |
| 20260502122010 | 31 | 338 | 0.0 | 0.0 | 0.00 | 0.00 | 0.00 | 90 | 1018.6 |
| 20260502121516 | 31 | 338 | 0.0 | 0.0 | 0.00 | 0.00 | 0.00 | 91 | 1018.6 |
| 20260502121007 | 30 | 338 | 0.0 | 0.0 | 0.00 | 0.00 | 0.00 | 91 | 1018.5 |
| 20260502120505 | 30 | 338 | 0.0 | 0.0 | 0.00 | 0.00 | 0.00 | 91 | 1018.4 |
| 20260502115508 | 29 | 338 | 0.0 | 0.0 | 0.00 | 0.00 | 0.00 | 91 | 1018.4 |
| 20260502115014 | 28 | 338 | 0.0 | 0.0 | 0.00 | 0.00 | 0.00 | 91 | 1018.5 |
| 20260502114524 | 28 | 338 | 0.0 | 0.0 | 0.00 | 0.00 | 0.00 | 91 | 1018.5 |
| 20260502114007 | 27 | 338 | 0.0 | 0.0 | 0.00 | 0.00 | 0.00 | 91 | 1018.5 |
| 20260502113508 | 27 | 338 | 0.0 | 0.0 | 0.00 | 0.00 | 0.00 | 91 | 1018.3 |
| 20260502113027 | 27 | 338 | 0.0 | 0.0 | 0.00 | 0.00 | 0.00 | 91 | 1018.3 |
| 20260502112508 | 26 | 338 | 0.0 | 0.0 | 0.00 | 0.00 | 0.00 | 91 | 1018.3 |
| 20260502112004 | 26 | 338 | 0.0 | 0.0 | 0.00 | 0.00 | 0.00 | 91 | 1018.2 |
| 20260502111512 | 25 | 338 | 0.0 | 0.0 | 0.00 | 0.00 | 0.00 | 91 | 1018.2 |
| 20260502111003 | 25 | 338 | 0.0 | 0.0 | 0.00 | 0.00 | 0.00 | 91 | 1018.3 |
| 20260502110507 | 25 | 338 | 0.0 | 0.0 | 0.00 | 0.00 | 0.00 | 91 | 1018.2 |
| 20260502110014 | 25 | 338 | 0.0 | 0.0 | 0.00 | 0.00 | 0.00 | 91 | 1018.1 |
| 20260502105505 | 25 | 338 | 0.0 | 0.0 | 0.00 | 0.00 | 0.00 | 91 | 1018.1 |
| 20260502105007 | 25 | 338 | 0.0 | 0.0 | 0.00 | 0.00 | 0.00 | 91 | 1018.1 |
| 20260502104524 | 25 | 338 | 0.0 | 0.0 | 0.00 | 0.00 | 0.00 | 91 | 1018.1 |
| 20260502104010 | 25 | 338 | 0.0 | 0.0 | 0.00 | 0.00 | 0.00 | 91 | 1018.1 |
| 20260502103509 | 25 | 338 | 0.0 | 0.0 | 0.00 | 0.00 | 0.00 | 91 | 1018.1 |
| 20260502103031 | 25 | 338 | 0.0 | 0.0 | 0.00 | 0.00 | 0.00 | 91 | 1018.1 |
| 20260502102509 | 25 | 338 | 0.0 | 0.0 | 0.00 | 0.00 | 0.00 | 91 | 1018.1 |
| 20260502102007 | 25 | 338 | 0.0 | 0.0 | 0.00 | 0.00 | 0.00 | 91 | 1018.2 |
| 20260502101544 | 25 | 338 | 0.0 | 0.0 | 0.00 | 0.00 | 0.00 | 91 | 1018.1 |
| 20260502101008 | 25 | 338 | 0.0 | 0.0 | 0.00 | 0.00 | 0.00 | 91 | 1018.1 |
| 20260502100508 | 25 | 338 | 0.0 | 0.0 | 0.00 | 0.00 | 0.00 | 91 | 1018.1 |
| 20260502091528 | 26 | 338 | 0.0 | 0.0 | 0.00 | 0.00 | 0.00 | 91 | 1017.9 |
| 20260502091009 | 26 | 338 | 0.0 | 0.0 | 0.00 | 0.00 | 0.00 | 91 | 1017.8 |
| 20260502090508 | 26 | 338 | 0.0 | 0.0 | 0.00 | 0.00 | 0.00 | 91 | 1017.8 |
| 20260502071515 | 27 | 338 | 0.0 | 0.0 | 0.00 | 0.00 | 0.00 | 90 | 1017.6 |
| 20260502071007 | 28 | 338 | 0.0 | 0.0 | 0.00 | 0.00 | 0.00 | 90 | 1017.6 |
| 20260502070507 | 28 | 338 | 0.0 | 0.0 | 0.00 | 0.00 | 0.00 | 90 | 1017.6 |
| 20260502070017 | 28 | 338 | 0.0 | 0.0 | 0.00 | 0.00 | 0.00 | 90 | 1017.7 |
| 20260502065506 | 28 | 338 | 0.0 | 0.0 | 0.00 | 0.00 | 0.00 | 90 | 1017.7 |
| 20260502065006 | 28 | 338 | 0.0 | 0.0 | 0.00 | 0.00 | 0.00 | 90 | 1017.7 |
| 20260502064517 | 28 | 338 | 0.0 | 0.0 | 0.00 | 0.00 | 0.00 | 90 | 1017.8 |
| 20260502064004 | 28 | 338 | 0.0 | 0.0 | 0.00 | 0.00 | 0.00 | 90 | 1017.7 |
| 20260502063504 | 28 | 338 | 0.0 | 0.0 | 0.00 | 0.00 | 0.00 | 90 | 1017.7 |
| 20260502063012 | 28 | 338 | 0.0 | 0.0 | 0.00 | 0.00 | 0.00 | 90 | 1017.7 |
| 20260502062508 | 28 | 338 | 0.0 | 0.0 | 0.00 | 0.00 | 0.00 | 90 | 1017.8 |
| 20260502062004 | 28 | 338 | 0.0 | 0.0 | 0.00 | 0.00 | 0.00 | 90 | 1017.8 |
| 20260502061518 | 28 | 338 | 0.0 | 0.0 | 0.00 | 0.00 | 0.00 | 90 | 1017.7 |
| 20260502061005 | 28 | 338 | 0.0 | 0.0 | 0.00 | 0.00 | 0.00 | 90 | 1017.7 |
| 20260502060506 | 28 | 338 | 0.0 | 0.0 | 0.00 | 0.00 | 0.00 | 90 | 1017.7 |
| 20260502060019 | 28 | 338 | 0.0 | 0.0 | 0.00 | 0.00 | 0.00 | 89 | 1017.8 |
| 20260502055506 | 28 | 338 | 0.0 | 0.0 | 0.00 | 0.00 | 0.00 | 89 | 1017.8 |
| 20260502055007 | 28 | 338 | 0.0 | 0.0 | 0.00 | 0.00 | 0.00 | 89 | 1017.8 |
| 20260502054517 | 29 | 338 | 0.0 | 0.0 | 0.00 | 0.00 | 0.00 | 89 | 1017.8 |
| 20260502054006 | 29 | 338 | 0.0 | 0.0 | 0.00 | 0.00 | 0.00 | 89 | 1017.8 |
| 20260502053510 | 29 | 338 | 0.0 | 0.0 | 0.00 | 0.00 | 0.00 | 89 | 1017.7 |
| 20260502053016 | 29 | 338 | 0.0 | 0.0 | 0.00 | 0.00 | 0.00 | 89 | 1017.7 |
| 20260502052504 | 29 | 338 | 0.0 | 0.0 | 0.00 | 0.00 | 0.00 | 89 | 1017.7 |
| 20260502052004 | 29 | 338 | 0.0 | 0.0 | 0.00 | 0.00 | 0.00 | 89 | 1017.7 |
| 20260502051514 | 29 | 338 | 0.0 | 0.0 | 0.00 | 0.00 | 0.00 | 88 | 1017.8 |
| 20260502051005 | 29 | 338 | 0.0 | 0.0 | 0.00 | 0.00 | 0.00 | 88 | 1017.8 |
| 20260502050507 | 29 | 338 | 0.0 | 0.0 | 0.00 | 0.00 | 0.00 | 88 | 1017.8 |
| 20260502050020 | 29 | 338 | 0.0 | 0.0 | 0.00 | 0.00 | 0.00 | 88 | 1017.7 |
| 20260502045507 | 29 | 338 | 0.0 | 0.0 | 0.00 | 0.00 | 0.00 | 88 | 1017.7 |
| 20260502045007 | 29 | 338 | 0.0 | 0.0 | 0.00 | 0.00 | 0.00 | 88 | 1017.7 |
| 20260502044518 | 30 | 338 | 0.0 | 0.0 | 0.00 | 0.00 | 0.00 | 87 | 1017.7 |
| 20260502044009 | 30 | 338 | 0.0 | 0.0 | 0.00 | 0.00 | 0.00 | 87 | 1017.7 |
| 20260502043507 | 30 | 338 | 0.0 | 0.0 | 0.00 | 0.00 | 0.00 | 87 | 1017.6 |
| 20260502043019 | 30 | 338 | 0.0 | 0.0 | 0.00 | 0.00 | 0.00 | 87 | 1017.6 |
| 20260502042507 | 30 | 338 | 0.0 | 0.0 | 0.00 | 0.00 | 0.00 | 87 | 1017.6 |
| 20260502042007 | 30 | 338 | 0.0 | 0.0 | 0.00 | 0.00 | 0.00 | 87 | 1017.6 |
| 20260502041521 | 30 | 338 | 0.0 | 0.0 | 0.00 | 0.00 | 0.00 | 87 | 1017.6 |
| 20260502041004 | 30 | 338 | 0.0 | 0.0 | 0.00 | 0.00 | 0.00 | 86 | 1017.6 |
| 20260502040506 | 31 | 338 | 0.0 | 0.0 | 0.00 | 0.00 | 0.00 | 86 | 1017.5 |
| 20260502040016 | 31 | 338 | 0.0 | 0.0 | 0.00 | 0.00 | 0.00 | 86 | 1017.6 |
| 20260502035506 | 31 | 338 | 0.0 | 0.0 | 0.00 | 0.00 | 0.00 | 85 | 1017.6 |
| 20260502035006 | 31 | 338 | 0.0 | 0.0 | 0.00 | 0.00 | 0.00 | 85 | 1017.6 |
| 20260502034526 | 32 | 338 | 0.0 | 0.0 | 0.00 | 0.00 | 0.00 | 84 | 1017.7 |
| 20260502034011 | 32 | 338 | 0.0 | 0.0 | 0.00 | 0.00 | 0.00 | 84 | 1017.6 |
| 20260502033507 | 32 | 338 | 0.0 | 0.0 | 0.00 | 0.00 | 0.00 | 84 | 1017.7 |
| 20260502033019 | 32 | 338 | 0.0 | 0.0 | 0.00 | 0.00 | 0.00 | 84 | 1017.7 |
| 20260502032507 | 32 | 338 | 0.0 | 0.0 | 0.00 | 0.00 | 0.00 | 84 | 1017.7 |
| 20260502032005 | 32 | 338 | 0.0 | 0.0 | 0.00 | 0.00 | 0.00 | 83 | 1017.7 |
| 20260502031524 | 33 | 338 | 0.0 | 0.0 | 0.00 | 0.00 | 0.00 | 82 | 1017.8 |
| 20260502031007 | 33 | 338 | 0.0 | 0.0 | 0.00 | 0.00 | 0.00 | 82 | 1017.8 |
| 20260502030507 | 33 | 338 | 0.0 | 0.0 | 0.00 | 0.00 | 0.00 | 81 | 1017.8 |
| 20260502030024 | 33 | 338 | 0.0 | 0.0 | 0.00 | 0.00 | 0.00 | 81 | 1017.8 |
| 20260502025508 | 33 | 338 | 0.0 | 0.0 | 0.00 | 0.00 | 0.00 | 80 | 1017.8 |
| 20260502025004 | 33 | 338 | 0.0 | 0.0 | 0.00 | 0.00 | 0.00 | 80 | 1017.8 |
| 20260502024519 | 33 | 338 | 0.0 | 0.0 | 0.00 | 0.00 | 0.00 | 79 | 1017.7 |
| 20260502024007 | 33 | 338 | 0.0 | 1.0 | 0.00 | 0.00 | 0.00 | 79 | 1017.8 |
| 20260502023507 | 33 | 338 | 0.0 | 2.0 | 0.00 | 0.00 | 0.00 | 78 | 1017.8 |
| 20260502023022 | 34 | 338 | 0.0 | 2.0 | 0.00 | 0.00 | 0.00 | 78 | 1017.8 |
| 20260502022506 | 34 | 338 | 0.0 | 2.0 | 0.00 | 0.00 | 0.00 | 77 | 1017.8 |
| 20260502022009 | 34 | 344 | 1.0 | 2.0 | 0.00 | 0.00 | 0.00 | 77 | 1017.8 |
| 20260502021523 | 34 | 11 | 0.0 | 1.0 | 0.00 | 0.00 | 0.00 | 76 | 1017.8 |
| 20260502021007 | 35 | 5 | 0.0 | 2.0 | 0.00 | 0.00 | 0.00 | 75 | 1017.8 |
| 20260502020507 | 35 | 5 | 0.0 | 2.0 | 0.00 | 0.00 | 0.00 | 75 | 1017.9 |
| 20260502020024 | 35 | 5 | 0.0 | 4.0 | 0.00 | 0.00 | 0.00 | 74 | 1017.9 |
| 20260502015507 | 35 | 5 | 1.0 | 5.0 | 0.00 | 0.00 | 0.00 | 74 | 1017.8 |
| 20260502015008 | 36 | 9 | 0.0 | 8.0 | 0.00 | 0.00 | 0.00 | 73 | 1017.6 |
| 20260502014525 | 36 | 340 | 0.0 | 8.0 | 0.00 | 0.00 | 0.00 | 73 | 1017.5 |
| 20260502014015 | 36 | 331 | 2.0 | 4.0 | 0.00 | 0.00 | 0.00 | 73 | 1017.5 |
| 20260502013507 | 36 | 344 | 1.0 | 4.0 | 0.00 | 0.00 | 0.00 | 73 | 1017.5 |
| 20260502013019 | 36 | 348 | 0.0 | 3.0 | 0.00 | 0.00 | 0.00 | 73 | 1017.5 |
| 20260502012510 | 36 | 342 | 0.0 | 4.0 | 0.00 | 0.00 | 0.00 | 72 | 1017.4 |
| 20260502012007 | 36 | 17 | 1.0 | 4.0 | 0.00 | 0.00 | 0.00 | 72 | 1017.4 |
| 20260502011525 | 36 | 27 | 1.0 | 6.0 | 0.00 | 0.00 | 0.00 | 72 | 1017.4 |
| 20260502011008 | 36 | 290 | 1.0 | 6.0 | 0.00 | 0.00 | 0.00 | 71 | 1017.3 |
| 20260502010508 | 36 | 20 | 2.0 | 6.0 | 0.00 | 0.00 | 0.00 | 71 | 1017.4 |
| 20260502010024 | 36 | 68 | 2.0 | 7.0 | 0.00 | 0.00 | 0.00 | 71 | 1017.4 |
| 20260502005504 | 36 | 360 | 2.0 | 7.0 | 0.00 | 0.00 | 0.00 | 70 | 1017.4 |
| 20260502005004 | 36 | 5 | 1.0 | 7.0 | 0.00 | 0.00 | 0.00 | 70 | 1017.4 |
| 20260502004511 | 36 | 338 | 2.0 | 7.0 | 0.00 | 0.00 | 0.00 | 70 | 1017.4 |
| 20260502004005 | 37 | 44 | 2.0 | 6.0 | 0.00 | 0.00 | 0.00 | 69 | 1017.5 |
| 20260502003504 | 37 | 329 | 1.0 | 5.0 | 0.00 | 0.00 | 0.00 | 70 | 1017.3 |
| 20260502003013 | 37 | 311 | 1.0 | 5.0 | 0.00 | 0.00 | 0.00 | 69 | 1017.5 |
| 20260502002507 | 37 | 340 | 2.0 | 8.0 | 0.00 | 0.00 | 0.00 | 69 | 1017.4 |
| 20260502002007 | 37 | 352 | 3.0 | 8.0 | 0.00 | 0.00 | 0.00 | 69 | 1017.3 |
| 20260502001521 | 37 | 9 | 2.0 | 9.0 | 0.00 | 0.00 | 0.00 | 69 | 1017.2 |
| 20260502001009 | 37 | 301 | 3.0 | 9.0 | 0.00 | 0.00 | 0.00 | 68 | 1017.2 |
| 20260502000503 | 37 | 306 | 3.0 | 9.0 | 0.00 | 0.00 | 0.00 | 68 | 1017.2 |
| 20260502000006 | 37 | 36 | 2.0 | 10.0 | 0.00 | 0.00 | 0.00 | 68 | 1017.2 |
| 20260501235503 | 37 | 296 | 3.0 | 10.0 | 0.00 | 0.00 | 0.00 | 67 | 1017.2 |
| 20260501235003 | 38 | 352 | 4.0 | 11.0 | 0.00 | 0.00 | 0.00 | 67 | 1017.2 |
| 20260501234512 | 38 | 5 | 5.0 | 11.0 | 0.00 | 0.00 | 0.00 | 67 | 1017.2 |
| 20260501234004 | 38 | 78 | 2.0 | 11.0 | 0.00 | 0.00 | 0.00 | 66 | 1017.1 |